SCP
0 0 0 0 0 0 0 0 0 0 0 0 0 0 0 0 0 0 0 0 0 0 0 0 0 0 0 -0 0 0 0 0 0 0 0 0 0 1 1 0 0 0 0 0
0 0 0 0 0 0 0 0 0 0 0 0 0 0 0 0 0 0 0 0 -0 0 0 0 0 0 0 0 -0 0 0 0 0 0 0 0 0 1 1 0 0 0 0 0
0 0 0 0 0 0 0 0 0 0 0 0 0 0 0 0 0 0 0 0 0 0 -0 -0 0 0 0 0 0 0 0 0 0 0 0 0 1 1 0 0 0 0 0 0
0 0 0 0 0 0 0 0 0 0 0 0 0 0 0 0 0 0 0 0 0 0 0 0 0 0 0 0 0 0 0 0 0 0 0 0 1 1 0 0 0 0 0 0
0 0 0 0 0 0 0 0 0 0 0 0 0 0 0 0 0 0 0 0 0 0 0 0 0 0 0 0 0 0 0 -0 -0 0 0 0 0 0 0 0 0 0 0 0
0 0 0 0 0 0 0 0 0 0 0 0 0 0 0 0 0 0 0 0 0 0 0 0 0 0 0 0 0 -0 0 0 -0 -0 0 0 0 0 0 0 0 0 0 0
0 0 0 0 0 0 0 0 0 0 0 0 0 0 0 0 0 0 0 0 0 0 0 0 0 0 0 0 0 0 -0 -0 0 -0 -0 0 0 0 0 0 0 0 0 0
0 0 0 0 0 0 0 0 0 0 0 0 0 0 0 0 0 0 0 0 0 0 0 0 0 0 0 0 0 0 0 0 -0 0 -0 -0 0 0 0 0 0 0 0 0
0 0 0 0 0 0 0 0 0 0 0 0 0 0 0 0 0 0 0 0 0 0 0 0 0 0 0 0 0 0 0 0 0 -0 -0 -0 0 0 0 0 0 0 0 0
0 0 0 0 0 0 0 0 0 0 0 0 0 0 0 0 0 0 0 0 0 0 0 0 0 0 0 0 0 0 0 0 0 0 -0 -0 0 0 0 0 0 0 0 0
0 0 0 0 0 0 0 0 0 0 0 0 0 0 0 0 0 0 0 0 0 0 0 0 0 0 0 0 0 0 0 0 0 0 0 0 0 -0 -0 0 0 -0 -0 -0
0 0 0 0 0 0 0 0 0 0 0 0 0 0 0 0 0 0 0 0 0 0 0 0 0 0 0 0 0 0 -0 -0 -0 0 -0 0 0 0 0 -0 -0 -0 -0 -0
0 0 0 0 0 0 0 0 0 0 0 0 0 0 0 0 0 0 0 0 0 0 0 0 0 0 0 0 0 0 0 -0 0 0 0 0 -0 0 0 0 0 0 0 0
0 0 0 0 0 0 0 0 0 0 0 0 0 0 0 0 0 0 0 0 0 0 0 0 0 0 0 0 0 -0 -0 -0 -0 0 0 0 0 -0 -0 0 0 0 0 0
0 0 0 0 0 0 0 0 0 0 0 0 0 0 0 0 0 0 0 0 0 0 0 0 0 0 0 0 0 0 -0 -0 -0 -0 0 -0 -0 -0 -0 -0 -0 -0 0 0
0 0 0 0 0 0 0 0 0 0 0 0 0 -0 0 0 0 0 0 0 0 0 0 0 0 0 0 0 0 -0 -0 -0 -0 -0 -0 -0 -0 -0 -0 -0 0 0 0 0
0 0 0 0 0 0 -0 0 0 0 0 0 0 0 0 0 0 0 0 0 0 0 0 0 0 0 0 0 0 -0 -0 -0 -0 0 0 0 0 0 0 0 0 0 -0 -0
0 0 0 0 0 0 0 0 0 0 0 0 0 0 0 0 0 0 0 0 0 0 0 0 0 0 0 0 0 -0 -0 0 -0 0 0 -0 0 0 0 0 0 -0 -0 -0
0 0 0 0 0 0 -0 0 0 0 -0 0 0 0 0 0 0 0 0 0 0 0 0 0 0 0 0 0 0 -0 -0 -0 0 -0 -0 -0 -0 -0 0 -0 -0 -0 -0 -0
0 0 0 0 0 0 0 0 0 0 0 0 0 0 0 0 0 0 0 0 0 0 0 0 0 0 0 0 0 -0 -0 -0 -0 -0 -0 -0 -0 0 0 0 0 -0 -0 -0
0 0 0 0 0 0 0 0 0 0 0 0 0 0 0 0 0 0 0 0 0 0 0 0 0 0 0 0 0 -0 -0 -0 -0 -0 -0 0 0 0 0 0 0 0 0 0
0 0 0 0 0 0 0 0 0 0 0 0 0 0 0 0 0 0 0 0 0 0 0 0 0 0 0 0 0 -0 -0 -0 0 0 0 0 0 0 0 0 0 0 0 0
0 0 0 0 0 0 0 0 0 0 0 0 0 0 0 0 0 0 0 0 0 0 0 0 0 0 0 0 0 0 -0 0 0 0 0 0 0 0 0 0 0 0 0 0
0 0 0 0 0 0 0 -0 0 0 0 0 0 0 0 0 0 0 0 0 0 0 0 0 0 0 0 0 0 0 0 0 0 0 0 0 0 0 0 0 0 0 0 0
0 0 0 0 0 0 0 0 0 0 0 0 0 0 0 0 0 0 0 0 0 0 0 0 0 0 0 0 0 0 0 0 0 0 0 0 0 0 0 0 0 0 0 0
0 0 0 0 0 0 0 0 0 0 0 0 0 0 0 0 0 0 0 0 0 0 0 0 0 0 0 0 0 0 0 0 0 0 0 0 0 0 0 0 0 0 0 0
Wind_Speed_500mb
7 10 5 8 5 9 10 5 5 6 4 5 6 6 5 11 18 23 32 41 42 46 48 51 52 51 54 66 60 54 60 51 44 46 51 48 47 53 52 57 50 54 70 54
9 5 7 10 9 8 4 4 6 8 5 3 5 12 7 1 6 12 20 28 38 53 61 62 57 57 48 67 61 49 46 44 41 37 39 37 39 48 43 55 50 54 50 49
8 7 11 6 5 6 5 7 5 7 8 2 13 7 4 6 15 14 16 27 35 45 56 67 68 64 59 59 65 56 39 33 34 28 34 37 34 31 34 43 49 51 49 67
6 3 7 3 3 8 2 8 6 4 6 4 8 8 9 7 13 9 15 25 35 42 48 53 64 72 75 72 65 61 47 35 26 17 29 38 32 35 35 38 41 47 63 54
5 11 6 4 4 7 4 8 6 1 2 5 9 2 12 5 10 10 12 21 29 36 43 46 50 59 68 69 71 74 42 52 23 11 19 33 32 29 29 31 35 45 49 52
5 1 4 6 5 2 6 6 5 5 2 2 7 7 10 8 11 7 8 14 23 33 39 43 40 47 57 68 66 57 63 62 55 14 14 23 36 28 28 37 33 35 37 38
2 3 1 4 5 1 3 6 6 9 6 7 6 3 17 10 11 10 8 9 17 25 32 39 43 46 47 59 63 72 65 69 73 61 29 29 35 39 42 39 49 43 42 39
10 5 10 5 3 8 3 6 8 8 4 8 3 10 9 10 10 12 8 5 11 19 24 31 36 38 35 40 51 64 72 67 80 81 80 73 77 69 66 69 68 78 81 82
9 4 3 5 3 3 5 4 4 10 3 3 6 12 10 5 8 13 13 7 5 12 19 26 31 35 37 35 37 43 56 63 66 81 87 90 94 97 98 95 87 79 78 76
11 8 1 3 4 6 4 9 6 5 2 8 8 9 9 11 19 15 17 18 8 3 10 16 23 30 33 34 31 29 33 41 53 61 68 74 76 76 76 75 72 61 63 61
6 4 1 4 10 12 4 3 5 5 6 7 5 10 12 13 17 24 29 27 16 8 1 9 16 22 27 29 30 30 31 34 36 39 50 55 59 61 64 69 65 56 57 55
10 7 7 6 1 1 4 10 10 7 8 5 2 13 2 12 15 32 35 33 24 16 8 2 8 14 20 24 26 29 31 33 35 38 42 45 48 51 54 57 55 53 52 49
13 3 5 12 7 4 9 10 7 8 5 12 8 11 4 6 9 26 33 37 31 23 17 9 3 7 13 19 22 25 29 32 32 32 38 42 45 46 49 50 51 50 50 50
15 4 9 12 7 9 10 10 12 11 6 8 16 8 10 13 15 23 36 40 37 30 24 17 10 6 8 14 19 20 25 29 28 29 34 40 41 43 46 48 49 49 48 47
7 9 4 6 6 3 6 10 20 31 14 17 5 22 21 20 24 48 50 43 41 39 34 27 19 12 9 11 14 18 22 26 26 28 31 35 37 39 41 43 44 45 43 43
5 4 4 7 3 4 12 21 24 30 31 34 31 53 24 38 30 35 46 53 52 48 39 32 26 20 13 13 12 15 20 23 25 28 31 32 32 33 36 37 38 36 37 36
14 12 6 9 6 8 19 27 43 18 15 38 25 28 9 9 24 49 56 63 66 58 47 40 32 25 21 17 16 18 18 22 22 23 27 27 28 28 28 30 27 29 29 27
13 10 5 6 6 4 12 8 9 36 17 33 19 17 18 23 46 45 58 63 73 64 54 43 36 32 26 22 21 21 21 20 18 16 19 18 22 21 21 23 22 25 25 23
2 10 4 8 8 14 16 10 15 15 17 48 50 38 25 19 15 43 53 51 63 67 61 49 38 32 29 28 28 26 23 21 18 14 14 14 14 14 15 16 20 23 23 23
7 8 7 5 10 16 10 7 13 8 13 13 44 26 20 30 9 14 37 52 61 60 64 56 47 42 35 34 33 31 28 26 21 18 17 15 13 13 14 14 17 18 19 21
8 3 13 6 9 17 19 16 22 10 12 14 35 35 49 16 23 4 12 48 55 63 64 61 56 49 38 38 38 38 34 29 27 25 22 17 14 12 12 10 12 14 16 17
22 19 9 6 4 22 39 17 19 11 10 18 20 34 53 51 35 30 9 24 60 61 71 71 64 52 47 43 43 43 39 35 32 30 25 20 16 13 10 7 8 8 9 14
12 16 15 23 18 3 68 19 61 15 15 21 23 21 25 31 42 34 31 30 53 63 73 77 70 60 54 49 47 47 43 40 36 33 29 24 19 15 10 6 3 2 5 10
10 10 8 7 21 33 51 75 34 51 24 21 21 20 21 20 28 35 32 35 48 66 78 82 75 67 61 54 52 47 45 41 40 37 33 29 24 19 13 8 5 4 2 4
12 31 16 13 18 7 42 78 71 76 49 44 27 27 22 21 25 33 41 40 44 63 79 83 79 72 63 54 53 54 51 46 44 41 36 33 30 24 18 13 10 9 7 5
17 16 19 17 31 19 24 46 63 78 74 74 47 44 36 27 27 29 40 50 48 62 78 84 81 73 64 59 56 58 55 49 47 43 38 36 34 29 23 18 15 16 12 8
Wind_Direction_500mb
24 74 131 158 107 126 125 137 202 252 257 310 229 288 334 12 2 351 353 4 358 354 347 358 360 355 358 356 349 330 316 307 294 278 252 248 237 230 232 241 245 245 243 228
32 130 183 125 125 108 105 115 283 293 287 222 325 292 200 207 286 302 327 354 1 4 7 7 2 359 358 355 356 346 321 311 291 273 254 230 236 232 228 236 240 240 237 209
138 177 144 126 142 132 172 152 234 243 320 264 324 326 298 259 274 286 342 344 352 1 10 19 11 5 5 356 6 2 345 318 298 269 249 224 227 224 222 228 234 246 227 220
124 149 155 135 186 149 241 185 187 296 30 290 20 287 289 257 284 269 321 346 359 1 356 359 6 13 15 15 6 359 1 2 313 257 232 210 215 223 225 232 235 233 242 220
163 160 161 172 226 186 170 152 184 233 150 310 336 84 268 333 278 277 312 344 356 359 2 1 2 15 21 17 13 14 13 23 19 269 204 203 192 206 224 207 201 201 219 229
137 177 179 184 95 200 147 123 54 61 97 348 248 113 278 198 210 257 280 344 1 2 7 12 15 17 21 20 21 14 23 36 41 128 121 189 178 187 181 179 187 200 198 199
43 218 217 153 112 313 114 71 338 352 9 227 182 85 247 230 224 219 257 339 4 7 7 12 14 24 21 10 15 21 24 48 54 87 121 127 148 171 163 153 145 133 137 151
162 284 175 165 211 183 162 167 155 228 269 291 155 237 251 209 200 220 234 314 360 2 11 12 16 15 8 13 16 23 30 40 66 75 100 111 112 116 117 117 124 115 114 111
147 183 106 81 145 129 166 188 156 109 48 4 217 278 279 158 211 213 228 250 323 358 9 13 16 19 21 26 31 25 33 44 57 69 80 92 100 102 103 103 99 95 95 93
205 116 81 133 95 47 179 155 73 11 40 296 279 272 242 214 225 217 219 220 234 332 2 21 17 21 26 33 41 43 43 46 49 68 78 86 93 96 99 100 98 96 97 104
143 83 140 109 203 183 147 206 69 119 151 193 292 263 214 218 204 200 207 202 200 208 313 23 26 26 29 34 47 55 61 66 69 67 74 83 84 87 92 98 102 103 103 106
198 137 163 188 237 291 226 208 169 141 216 227 155 270 237 236 216 197 194 195 191 193 192 48 34 37 33 40 48 58 65 66 68 76 82 87 93 94 96 99 100 104 105 108
181 266 63 351 358 351 225 197 164 113 104 204 151 263 155 260 208 200 194 193 193 192 187 178 126 57 55 53 54 61 71 72 74 77 85 90 92 97 99 100 102 105 107 106
141 150 181 188 166 135 204 193 182 157 162 192 225 254 217 221 218 216 209 202 196 196 193 185 175 143 88 72 71 70 78 82 87 92 95 97 99 101 101 103 104 104 103 101
144 201 158 260 250 229 237 204 192 209 199 194 234 221 224 209 208 215 214 204 200 202 201 190 180 171 134 100 89 89 89 94 97 103 106 104 102 103 103 103 102 99 99 94
172 170 96 301 358 258 259 235 233 223 231 252 263 278 209 226 221 220 217 208 208 209 205 197 183 175 165 140 123 105 103 104 109 114 111 107 106 103 100 97 97 97 94 90
153 140 119 260 342 336 291 222 210 199 208 218 218 238 135 174 198 222 220 213 215 211 205 199 192 183 174 162 155 135 123 116 116 116 112 114 110 110 109 104 101 98 94 90
142 113 88 198 8 274 243 159 187 218 228 214 239 224 195 207 218 232 233 224 218 214 207 202 193 184 181 172 172 163 153 142 138 134 127 126 121 118 110 103 101 91 83 76
163 134 106 156 202 297 275 194 168 177 269 217 221 235 219 209 239 247 237 232 228 213 206 201 193 189 188 184 180 177 173 166 164 156 151 145 132 118 111 109 95 82 66 58
97 51 126 142 182 218 242 181 159 138 289 202 202 215 163 155 210 250 226 219 214 213 207 197 192 192 192 191 187 184 183 182 177 176 176 170 159 148 124 100 85 79 65 49
137 68 181 183 233 284 238 158 142 101 239 164 191 191 168 190 207 171 200 208 212 208 203 197 196 198 189 193 193 189 190 188 186 185 185 186 178 161 140 116 90 71 55 41
172 159 172 107 181 265 158 125 179 202 152 169 173 189 196 212 216 216 221 203 202 203 197 196 197 195 192 195 198 195 193 192 192 190 189 193 189 180 169 137 90 64 55 37
205 187 180 190 203 228 182 210 205 189 187 192 192 193 199 207 218 225 224 211 202 201 196 196 197 194 196 198 198 199 194 196 197 194 195 199 204 201 193 165 128 49 37 36
236 180 208 132 234 225 220 227 234 220 214 204 204 203 199 202 207 210 212 211 204 201 199 196 196 197 199 200 200 196 201 202 201 201 201 202 203 202 206 219 238 269 306 7
185 151 167 267 275 281 246 234 236 232 225 226 224 225 216 208 212 211 209 209 208 203 198 199 199 201 203 204 201 199 202 206 206 207 207 208 203 206 216 227 239 250 256 327
187 167 188 213 213 204 239 238 239 231 232 229 222 221 217 222 222 222 221 217 215 208 203 203 206 207 205 207 205 205 206 208 210 214 213 212 210 209 219 229 235 245 249 285
Wind_Speed_850mb
7 10 5 8 5 9 10 5 5 6 4 5 6 6 5 11 18 23 32 41 42 46 48 51 52 51 54 66 60 54 60 51 44 46 51 48 47 53 52 57 50 54 70 54
9 5 7 10 9 8 4 4 6 8 5 3 5 12 7 1 6 12 20 28 38 53 61 62 57 57 48 67 61 49 46 44 41 37 39 37 39 48 43 55 50 54 50 49
8 7 11 6 5 6 5 7 5 7 8 2 13 7 4 6 15 14 16 27 35 45 56 67 68 64 59 59 65 56 39 33 34 28 34 37 34 31 34 43 49 51 49 67
6 3 7 3 3 8 2 8 6 4 6 4 8 8 9 7 13 9 15 25 35 42 48 53 64 72 75 72 65 61 47 35 26 17 29 38 32 35 35 38 41 47 63 54
5 11 6 4 4 7 4 8 6 1 2 5 9 2 12 5 10 10 12 21 29 36 43 46 50 59 68 69 71 74 42 52 23 11 19 33 32 29 29 31 35 45 49 52
5 1 4 6 5 2 6 6 5 5 2 2 7 7 10 8 11 7 8 14 23 33 39 43 40 47 57 68 66 57 63 62 55 14 14 23 36 28 28 37 33 35 37 38
2 3 1 4 5 1 3 6 6 9 6 7 6 3 17 10 11 10 8 9 17 25 32 39 43 46 47 59 63 72 65 69 73 61 29 29 35 39 42 39 49 43 42 39
10 5 10 5 3 8 3 6 8 8 4 8 3 10 9 10 10 12 8 5 11 19 24 31 36 38 35 40 51 64 72 67 80 81 80 73 77 69 66 69 68 78 81 82
9 4 3 5 3 3 5 4 4 10 3 3 6 12 10 5 8 13 13 7 5 12 19 26 31 35 37 35 37 43 56 63 66 81 87 90 94 97 98 95 87 79 78 76
11 8 1 3 4 6 4 9 6 5 2 8 8 9 9 11 19 15 17 18 8 3 10 16 23 30 33 34 31 29 33 41 53 61 68 74 76 76 76 75 72 61 63 61
6 4 1 4 10 12 4 3 5 5 6 7 5 10 12 13 17 24 29 27 16 8 1 9 16 22 27 29 30 30 31 34 36 39 50 55 59 61 64 69 65 56 57 55
10 7 7 6 1 1 4 10 10 7 8 5 2 13 2 12 15 32 35 33 24 16 8 2 8 14 20 24 26 29 31 33 35 38 42 45 48 51 54 57 55 53 52 49
13 3 5 12 7 4 9 10 7 8 5 12 8 11 4 6 9 26 33 37 31 23 17 9 3 7 13 19 22 25 29 32 32 32 38 42 45 46 49 50 51 50 50 50
15 4 9 12 7 9 10 10 12 11 6 8 16 8 10 13 15 23 36 40 37 30 24 17 10 6 8 14 19 20 25 29 28 29 34 40 41 43 46 48 49 49 48 47
7 9 4 6 6 3 6 10 20 31 14 17 5 22 21 20 24 48 50 43 41 39 34 27 19 12 9 11 14 18 22 26 26 28 31 35 37 39 41 43 44 45 43 43
5 4 4 7 3 4 12 21 24 30 31 34 31 53 24 38 30 35 46 53 52 48 39 32 26 20 13 13 12 15 20 23 25 28 31 32 32 33 36 37 38 36 37 36
14 12 6 9 6 8 19 27 43 18 15 38 25 28 9 9 24 49 56 63 66 58 47 40 32 25 21 17 16 18 18 22 22 23 27 27 28 28 28 30 27 29 29 27
13 10 5 6 6 4 12 8 9 36 17 33 19 17 18 23 46 45 58 63 73 64 54 43 36 32 26 22 21 21 21 20 18 16 19 18 22 21 21 23 22 25 25 23
2 10 4 8 8 14 16 10 15 15 17 48 50 38 25 19 15 43 53 51 63 67 61 49 38 32 29 28 28 26 23 21 18 14 14 14 14 14 15 16 20 23 23 23
7 8 7 5 10 16 10 7 13 8 13 13 44 26 20 30 9 14 37 52 61 60 64 56 47 42 35 34 33 31 28 26 21 18 17 15 13 13 14 14 17 18 19 21
8 3 13 6 9 17 19 16 22 10 12 14 35 35 49 16 23 4 12 48 55 63 64 61 56 49 38 38 38 38 34 29 27 25 22 17 14 12 12 10 12 14 16 17
22 19 9 6 4 22 39 17 19 11 10 18 20 34 53 51 35 30 9 24 60 61 71 71 64 52 47 43 43 43 39 35 32 30 25 20 16 13 10 7 8 8 9 14
12 16 15 23 18 3 68 19 61 15 15 21 23 21 25 31 42 34 31 30 53 63 73 77 70 60 54 49 47 47 43 40 36 33 29 24 19 15 10 6 3 2 5 10
10 10 8 7 21 33 51 75 34 51 24 21 21 20 21 20 28 35 32 35 48 66 78 82 75 67 61 54 52 47 45 41 40 37 33 29 24 19 13 8 5 4 2 4
12 31 16 13 18 7 42 78 71 76 49 44 27 27 22 21 25 33 41 40 44 63 79 83 79 72 63 54 53 54 51 46 44 41 36 33 30 24 18 13 10 9 7 5
17 16 19 17 31 19 24 46 63 78 74 74 47 44 36 27 27 29 40 50 48 62 78 84 81 73 64 59 56 58 55 49 47 43 38 36 34 29 23 18 15 16 12 8
Wind_Direction_850mb
24 74 131 158 107 126 125 137 202 252 257 310 229 288 334 12 2 351 353 4 358 354 347 358 360 355 358 356 349 330 316 307 294 278 252 248 237 230 232 241 245 245 243 228
32 130 183 125 125 108 105 115 283 293 287 222 325 292 200 207 286 302 327 354 1 4 7 7 2 359 358 355 356 346 321 311 291 273 254 230 236 232 228 236 240 240 237 209
138 177 144 126 142 132 172 152 234 243 320 264 324 326 298 259 274 286 342 344 352 1 10 19 11 5 5 356 6 2 345 318 298 269 249 224 227 224 222 228 234 246 227 220
124 149 155 135 186 149 241 185 187 296 30 290 20 287 289 257 284 269 321 346 359 1 356 359 6 13 15 15 6 359 1 2 313 257 232 210 215 223 225 232 235 233 242 220
163 160 161 172 226 186 170 152 184 233 150 310 336 84 268 333 278 277 312 344 356 359 2 1 2 15 21 17 13 14 13 23 19 269 204 203 192 206 224 207 201 201 219 229
137 177 179 184 95 200 147 123 54 61 97 348 248 113 278 198 210 257 280 344 1 2 7 12 15 17 21 20 21 14 23 36 41 128 121 189 178 187 181 179 187 200 198 199
43 218 217 153 112 313 114 71 338 352 9 227 182 85 247 230 224 219 257 339 4 7 7 12 14 24 21 10 15 21 24 48 54 87 121 127 148 171 163 153 145 133 137 151
162 284 175 165 211 183 162 167 155 228 269 291 155 237 251 209 200 220 234 314 360 2 11 12 16 15 8 13 16 23 30 40 66 75 100 111 112 116 117 117 124 115 114 111
147 183 106 81 145 129 166 188 156 109 48 4 217 278 279 158 211 213 228 250 323 358 9 13 16 19 21 26 31 25 33 44 57 69 80 92 100 102 103 103 99 95 95 93
205 116 81 133 95 47 179 155 73 11 40 296 279 272 242 214 225 217 219 220 234 332 2 21 17 21 26 33 41 43 43 46 49 68 78 86 93 96 99 100 98 96 97 104
143 83 140 109 203 183 147 206 69 119 151 193 292 263 214 218 204 200 207 202 200 208 313 23 26 26 29 34 47 55 61 66 69 67 74 83 84 87 92 98 102 103 103 106
198 137 163 188 237 291 226 208 169 141 216 227 155 270 237 236 216 197 194 195 191 193 192 48 34 37 33 40 48 58 65 66 68 76 82 87 93 94 96 99 100 104 105 108
181 266 63 351 358 351 225 197 164 113 104 204 151 263 155 260 208 200 194 193 193 192 187 178 126 57 55 53 54 61 71 72 74 77 85 90 92 97 99 100 102 105 107 106
141 150 181 188 166 135 204 193 182 157 162 192 225 254 217 221 218 216 209 202 196 196 193 185 175 143 88 72 71 70 78 82 87 92 95 97 99 101 101 103 104 104 103 101
144 201 158 260 250 229 237 204 192 209 199 194 234 221 224 209 208 215 214 204 200 202 201 190 180 171 134 100 89 89 89 94 97 103 106 104 102 103 103 103 102 99 99 94
172 170 96 301 358 258 259 235 233 223 231 252 263 278 209 226 221 220 217 208 208 209 205 197 183 175 165 140 123 105 103 104 109 114 111 107 106 103 100 97 97 97 94 90
153 140 119 260 342 336 291 222 210 199 208 218 218 238 135 174 198 222 220 213 215 211 205 199 192 183 174 162 155 135 123 116 116 116 112 114 110 110 109 104 101 98 94 90
142 113 88 198 8 274 243 159 187 218 228 214 239 224 195 207 218 232 233 224 218 214 207 202 193 184 181 172 172 163 153 142 138 134 127 126 121 118 110 103 101 91 83 76
163 134 106 156 202 297 275 194 168 177 269 217 221 235 219 209 239 247 237 232 228 213 206 201 193 189 188 184 180 177 173 166 164 156 151 145 132 118 111 109 95 82 66 58
97 51 126 142 182 218 242 181 159 138 289 202 202 215 163 155 210 250 226 219 214 213 207 197 192 192 192 191 187 184 183 182 177 176 176 170 159 148 124 100 85 79 65 49
137 68 181 183 233 284 238 158 142 101 239 164 191 191 168 190 207 171 200 208 212 208 203 197 196 198 189 193 193 189 190 188 186 185 185 186 178 161 140 116 90 71 55 41
172 159 172 107 181 265 158 125 179 202 152 169 173 189 196 212 216 216 221 203 202 203 197 196 197 195 192 195 198 195 193 192 192 190 189 193 189 180 169 137 90 64 55 37
205 187 180 190 203 228 182 210 205 189 187 192 192 193 199 207 218 225 224 211 202 201 196 196 197 194 196 198 198 199 194 196 197 194 195 199 204 201 193 165 128 49 37 36
236 180 208 132 234 225 220 227 234 220 214 204 204 203 199 202 207 210 212 211 204 201 199 196 196 197 199 200 200 196 201 202 201 201 201 202 203 202 206 219 238 269 306 7
185 151 167 267 275 281 246 234 236 232 225 226 224 225 216 208 212 211 209 209 208 203 198 199 199 201 203 204 201 199 202 206 206 207 207 208 203 206 216 227 239 250 256 327
187 167 188 213 213 204 239 238 239 231 232 229 222 221 217 222 222 222 221 217 215 208 203 203 206 207 205 207 205 205 206 208 210 214 213 212 210 209 219 229 235 245 249 285